Погода Жангизтобе

Погода Жангизтобе : погода сейчас, прогноз погоды и архив. Всё, что Вы хотите узнать о погоде Жангизтобе!

Хотите узнать прогноз погоды Жангизтобе? Тогда Вам сюда: Погода Жангизтобе

Поиск расширенной информации на нашем сайте:

Другие новости

Новости СМИ2

Главная страница сайта

Новости сайта

03.07.2017

Напоминаем, что на нашем специализированном сайте Метеоцентр.Азия вы можете получить высокодетализированные автоматические прогнозы погоды по пунктам России, СНГ и мира в авиационном формате (включающие направление и скорость ветра, видимость, явления погоды, количество и форму облачности, нижнюю и верхнюю границу облачности).


Погода Жангизтобе - сегодня

Время (UTC), дата Ветер
(°,м/с) 
Видим.   Явления Облачность Т
(°С)
Тd
(°С)
f(%) Тe
(°С)
Pmin
(гПа)
dP
(гПа)
Po
(мм)
O2
(г/м3)
Тmin Tmax R s Состояние
почвы
12 20.10.17 210 (ЮЗ) 20000 м    10/10 1000 м 
[Sc]
+8.5 +4.5 76 +6  1022.1  0.1  726  283           
15 20.10.17 200 (Ю) н/о    10/10 1000 м 
[Sc]
+8.6 +3.6 71 +6  1022  -0.1  726  283    +10.2  0.6     
18 20.10.17 200 (Ю) 8{18}  н/о    10/10 1000 м 
[Sc]
+8.4 +1.5 62 +6  1021.7  -0.3  726  283    +10.2  0.6     
21 20.10.17 150 (ЮВ) н/о    10/10 1000 м 
[Sc]
+7.5 +3.6 76 +5  1021.4  -0.4  725  284           
00 21.10.17 150 (ЮВ) н/о    10/10 1000 м 
[Sc]
+7.1 +3.1 76 +4  1019.9  -1.5  724  284           
03 21.10.17 150 (ЮВ) 20000 м    10/10 1000 м 
[Sc]
+6.9 +2.9 76 +4  1018.8  -1.1  723  284           
06 21.10.17 150 (ЮВ) 16-18{2}  20000 м    8/8 1000 м 
[Sc]
+9.9 +2.8 61 +6  1016.9  -1.3  722  280  +6.7         
09 21.10.17 150 (ЮВ) 18-22{25}  20000 м    8/8 1000 м 
[Sc]
+13 +2.8 50 +10  1014.6  -1.6  721  277           
12 21.10.17 150 (ЮВ) 10{25}  20000 м    9/9 1000 м 
[Sc]
+11.2 +3.1 57 +9  1014  -0.9  721  278    +1       
15 21.10.17 150 (ЮВ) 9{18}  н/о    10/10 1000 м 
[Sc]
+10.4 +2.1 56 +8  1013.5  -0.6  720  279    +13.5       
18 21.10.17 160 (Ю) н/о    8/8 1000 м 
[Sc]
+9.2 +0.2 53 +7  1013.1  -0.6  720  280    +13.5       
21 21.10.17 160 (Ю) 10  н/о    6/5 1000 м 
[Sc]
+7.9 +1.7 65 +5  1013.7  0.3  720  282           
00 22.10.17 160 (Ю) 12{17}  н/о    4/4 1000 м 
[Sc]
+6.7 +0.8 66 +3  1013.6  -0.3  720  283    +0.5       
03 22.10.17 150 (ЮВ) 20000 м    8/4 1000 м верхняя 
[Sc diur, vesp|Ci fib]
+7.9 +1.7 65 +7  1014.4  720  282           
06 22.10.17 200 (Ю) 20000 м    9/6 1000 м средняя 
[Sc|Ac As]
+13 +3.9 54 +12  1014.1  0.7  721  277  +6.5         
09 22.10.17 220 (ЮЗ) 20000 м    6/4 1000 м средняя 
[Sc diur, vesp|Ac cast]
+14.7 +4 49 +14  1013.9  0.1  721  275           
12 22.10.17 210 (ЮЗ) н/о    4/4 1000 м 
[Sc]
+12.9 +6.8 66 +12  1015.7  1.4  722  277           
15 22.10.17 310 (СЗ) н/о  {ливн. осадки}  10/10 1000 м кучево-дожд. 
[Cb calv]
+5.5 +4.4 93 +4  1022.2  4.7  726  286    +15.3  0.7     
18 22.10.17 350 (С) н/о  {ливн. осадки}  10/10 1000 м кучево-дожд. 
[Cb calv]
+3.4 +0.8 83 +3  1024.6  1.9  727  289    +15.3  0.7     
21 22.10.17 030 (СВ) н/о    9/9 1000 м 
[Sc]
+3.3 +0.7 83 +4  1024.5  -0.1  727  289           
00 23.10.17 тихо ()   н/о    8/8 1000 м 
[Sc]
+2 -0.4 84 +2  1024.6  -0.2  727  291           
03 23.10.17 тихо ()   20000 м    8/0 средняя 
[Ac cast]
+2.1 -0.6 82 +2  1024.5  -0.1  727  291           
06 23.10.17 тихо ()   20000 м    6/0 средняя 
[Ac cast]
+7.7 +1.4 64 +8  1021.9  -1.4  726  284  +0.9         
09 23.10.17 030 (СВ) 20000 м    6/0 верхняя 
[Ci fib]
+11.7 +3.8 58 +13  1018.6  -2.3  724  279           
12 23.10.17 040 (СВ) н/о    3/0 верхняя 
[Ci fib]
+9.8 +5 72 +11  1018.5  -0.4  724  281           
Время (UTC), дата Ветер
(°,м/с) 
Видим.   Явления Облачность Т
(°С)
Тd
(°С)
f(%) Тe
(°С)
Pmin
(гПа)
dP
(гПа)
Po
(мм)
O2
(г/м3)
Тmin Tmax R s Состояние
почвы

Для получения пояснительной информации подведите курсор к названию столбца.

ПОГОДА Жангизтобе - архив

Всё, что Вы хотите узнать о погоде Жангизтобе - удобно и подробно!

Выберите нужную дату (начиная с 1 января 2015* года) и нажмите кнопку "Найти".
Будут отображены архивные сводки погоды по пункту Жангизтобе, начиная с указанной даты.


Отображать данные в формате CSV (для использования в таблицах Excel)


Внимание! Наш архив погоды предназначен исключительно для личного некоммерческого использования в познавательных целях. Если Вам необходимы официальные справки о состоянии погоды (для производственных, юридических, коммерческих и т.п. целей), обращайтесь в органы Росгидромета.

*Примечание: данная дата относится к архиву по метеостанциям СССР (Россия, СНГ, Балтия).
Архив по метеостанциям Зарубежной Европы и Азии (кроме Китая) хранится 10 дней, по другим регионам земного шара (Китай, Африка, Америка, Австралия, Океания) - 1 день.

Жангизтобе - район местоположения метеостанции


Название, широта, долгота, высота метеостанции:
Жангизтобе 49.2°ш. 81.2°д. 455 м над ур. моря [Казахстан]

Дополнительная информация

В oтличие oт бoльшинства пoгoдных сайтoв мы публикуем пoдрoбную метеoинфoрмацию в детальнoм прoфессиoнальнoм фoрмате.

Характеристики температуры и влажнoсти вoздуха измеряются на высoте 2 м в тени вдали oт зданий и деревьев.
Скoрoсть ветра измеряется на высoте 10 м (на урoвне рoста челoвека скoрoсть ветра ниже в 1.5-2 раза). Если метеoстанция нахoдится в гoрoде или в лесу, тo скoрoсть ветра занижена на 2-4 м/с пo сравнению с oткрытым местoм. Скoрoсть ветра над акватoриями крупных рек и oзёр, а также на вершинах хoлмoв на 2-5 м/с выше, чем в oбычных услoвиях.
Атмoсфернoе давление в разных тoчках местнoсти мoжет значительнo oтличаться oт давления на метеoстанции, в зависимoсти oт услoвий рельефа (при пoдъёме на 10 м давление пoнижается примернo на 1 мм рт.ст.).